Theta_e
350 349 350 351 349 349 349 350 350 349 347 344 343 342 341 340 337 335 336 337 341 339 337 337 338 337 337 336 334 335 334 334 335
349 349 349 350 350 349 348 350 348 348 348 345 344 344 343 339 336 335 335 336 340 338 337 338 337 337 337 336 335 334 335 334 334
348 349 349 348 349 349 349 349 348 348 347 346 347 345 342 336 334 334 335 340 340 340 339 339 339 338 337 337 335 336 335 335 334
346 348 349 348 348 349 349 348 348 347 346 347 346 344 340 335 333 333 334 341 341 341 340 339 339 339 338 338 338 337 336 335 334
344 345 346 348 349 348 349 348 347 347 346 345 344 342 339 335 334 333 334 343 341 343 341 341 340 339 339 339 338 337 337 336 335
340 341 342 345 347 347 347 348 346 343 342 343 342 340 339 336 334 333 340 342 341 342 344 342 341 340 340 339 339 338 337 336 336
333 332 335 340 343 343 346 346 344 341 343 342 340 341 340 337 336 335 340 341 340 342 343 345 343 341 340 340 340 339 338 338 337
319 329 335 343 336 342 341 342 342 341 343 342 341 339 337 337 335 335 338 339 338 340 342 344 344 344 342 341 341 340 339 338 338
315 318 325 332 341 339 341 340 341 340 342 342 341 337 336 335 334 334 335 339 338 338 339 342 343 344 344 343 342 343 342 340 340
316 316 317 322 331 339 339 339 338 340 339 341 339 339 336 334 334 333 331 337 340 340 339 339 342 342 344 344 343 343 343 343 343
318 317 318 319 323 332 337 339 339 337 338 338 339 338 338 336 334 333 333 334 337 340 340 339 340 340 341 343 345 345 344 343 344
314 317 317 317 318 320 330 334 336 337 339 337 337 338 338 337 336 334 332 335 332 336 339 338 339 340 341 341 343 345 344 344 343
311 314 316 317 318 319 321 329 331 332 335 335 337 338 338 338 337 335 333 333 333 331 335 337 339 340 341 342 342 344 343 343 343
312 312 315 316 317 317 318 320 328 329 330 333 333 334 335 337 338 336 336 337 338 337 333 332 334 336 339 339 341 342 343 342 341
314 313 314 316 316 316 317 317 323 327 326 330 329 332 333 334 335 337 338 337 336 337 337 332 332 330 334 336 337 338 340 340 341
315 315 315 316 315 316 316 316 320 324 328 326 326 327 329 330 332 333 334 334 335 334 334 333 331 331 330 333 335 335 335 336 338
315 315 315 314 316 313 315 317 316 323 326 321 321 318 320 325 325 326 328 329 330 329 329 327 327 328 330 330 331 332 334 333 334
316 315 317 317 316 314 314 317 317 318 323 325 320 314 311 315 319 321 322 323 323 324 324 325 325 326 327 325 322 323 326 329 331
314 312 314 318 317 316 317 319 320 321 319 321 322 323 321 312 311 318 319 321 321 323 321 321 322 321 320 316 313 316 321 325 328
311 309 311 313 316 317 316 319 321 323 321 319 320 318 317 318 312 308 312 317 319 321 320 319 319 315 311 309 309 310 312 317 322
Wind_Speed
12 12 11 10 8 8 8 8 11 11 11 12 12 11 9 7 9 4 5 6 9 5 3 4 6 4 5 4 4 5 4 4 4
13 12 12 11 10 10 11 11 12 13 13 13 13 12 11 9 9 6 5 6 9 6 5 5 4 5 5 4 4 3 3 3 3
13 12 12 13 12 12 13 13 13 13 14 14 13 12 10 10 10 7 6 10 9 9 9 8 7 5 5 5 4 4 3 3 3
14 13 13 13 14 14 13 14 15 14 15 14 13 11 11 11 8 8 6 12 11 11 10 10 9 9 8 7 7 6 5 4 4
15 14 14 15 15 14 14 14 15 15 15 15 12 11 11 11 12 6 5 15 14 13 13 12 12 11 11 10 9 9 8 8 7
9 9 12 14 16 16 16 15 15 15 14 15 13 11 9 11 9 6 12 13 13 14 13 14 14 13 13 12 12 11 11 10 10
6 10 12 10 11 13 16 17 16 14 10 9 12 9 12 11 10 7 15 14 14 15 14 14 15 14 14 13 13 12 12 12 11
8 6 7 7 10 9 13 13 11 14 11 10 9 13 13 9 8 9 17 16 15 16 16 15 15 16 15 15 15 14 14 13 13
9 7 8 8 7 8 9 6 10 13 13 14 12 13 11 8 7 8 16 16 17 18 17 17 16 15 17 17 16 15 15 15 14
9 9 9 8 8 7 9 7 8 10 12 13 13 12 12 13 7 6 16 17 17 19 19 19 18 17 16 17 17 15 16 16 16
9 9 9 10 10 7 8 9 8 9 11 12 13 14 13 12 13 9 9 16 17 18 19 19 18 18 17 17 16 17 18 18 17
12 10 9 10 10 12 8 9 8 9 10 13 13 12 14 12 13 11 9 10 14 17 19 19 18 17 17 18 17 15 17 17 17
12 10 10 10 10 9 9 8 7 8 10 10 10 11 12 14 13 11 10 8 9 12 17 18 19 19 18 18 18 16 15 16 17
11 9 10 12 9 9 9 8 8 8 8 9 8 9 10 11 10 11 9 8 7 6 15 17 15 14 16 18 19 18 15 14 15
11 9 11 11 9 10 10 10 9 8 10 7 7 8 7 7 9 10 10 9 10 10 6 8 7 15 15 15 16 16 15 14 13
10 9 11 10 10 11 11 11 11 7 8 4 4 6 5 8 9 6 13 7 7 4 7 1 3 6 13 13 13 12 12 14 15
10 11 11 11 8 12 12 11 9 6 7 4 3 5 1 1 4 6 6 4 1 1 3 5 2 2 1 1 9 9 10 11 13
12 14 12 11 8 8 10 8 8 6 6 8 5 1 1 2 4 6 7 6 5 3 3 3 4 3 4 8 10 14 11 10 11
10 11 13 13 8 8 9 8 8 7 5 2 0 2 4 2 2 1 3 5 3 3 3 3 7 11 6 11 14 16 15 13 12
9 10 11 11 8 6 8 6 6 5 4 5 5 3 3 3 4 2 3 3 3 2 5 4 5 7 7 7 8 14 15 13 13
Wind_Direction
263 262 252 262 265 242 230 203 189 183 185 187 183 183 187 203 233 207 120 283 125 145 148 104 126 132 130 136 131 120 113 100 91
274 266 261 248 246 251 228 209 195 191 192 198 197 191 192 225 237 215 186 201 146 171 177 178 173 165 156 162 157 146 139 127 116
274 266 260 256 248 248 233 223 210 205 204 206 208 200 198 217 254 219 202 133 166 186 186 188 190 186 186 184 187 180 178 175 170
269 262 252 249 246 244 241 230 222 214 213 215 213 195 201 248 232 221 215 155 180 199 196 199 199 197 198 198 199 199 205 207 212
248 245 242 238 236 234 236 233 232 225 220 217 219 199 204 233 268 222 235 161 187 215 198 203 206 207 205 206 207 209 211 214 216
308 285 244 223 228 228 230 227 227 228 224 221 213 195 223 221 238 229 163 172 196 215 222 207 210 212 213 213 214 215 217 219 221
319 293 278 274 259 240 233 231 227 219 230 217 213 218 225 229 228 223 161 177 207 221 226 229 213 216 218 219 221 224 226 229 231
281 271 266 260 244 246 234 233 230 227 216 228 211 212 223 230 233 226 165 179 206 222 225 231 232 220 220 222 223 225 229 232 235
287 281 276 263 256 257 256 241 233 227 216 224 227 217 220 222 233 217 168 180 203 220 224 228 232 236 229 223 225 226 226 230 234
290 288 286 280 269 261 256 244 234 230 238 225 224 235 231 229 226 233 175 180 197 217 222 225 228 233 235 231 233 230 232 231 232
286 287 283 280 277 256 254 258 244 230 226 233 223 227 235 240 228 221 187 186 193 210 222 227 231 236 240 242 231 228 231 235 236
298 291 288 284 284 281 268 258 263 249 240 227 230 231 228 230 240 225 230 187 197 203 219 226 231 236 242 246 248 237 236 236 239
296 289 281 281 284 287 272 264 257 260 239 236 230 232 232 235 234 239 220 219 191 204 217 222 228 233 235 242 248 247 240 240 240
301 290 285 282 283 273 269 262 253 255 256 244 235 239 236 237 240 244 242 234 230 223 202 208 217 228 236 240 248 251 253 249 246
310 293 284 280 271 274 269 262 263 254 265 253 249 238 243 226 230 226 220 219 228 235 212 192 205 214 223 237 248 255 261 268 268
308 300 296 281 269 261 263 259 255 268 257 246 248 240 213 244 209 232 229 219 216 243 244 244 222 186 211 212 227 244 263 269 271
316 314 303 297 285 280 268 259 254 243 247 246 236 245 144 339 348 350 227 106 303 26 274 262 209 353 310 164 212 231 254 285 288
354 325 312 281 273 276 282 283 272 248 246 243 245 181 144 120 15 320 45 66 42 277 80 43 13 354 344 39 43 31 31 353 320
345 331 326 315 297 289 283 280 265 254 235 113 331 188 136 120 92 86 59 49 54 306 3 19 25 51 49 60 37 30 23 0 339
349 347 340 344 341 322 316 284 268 261 234 201 153 123 62 133 148 175 224 126 201 273 46 8 65 60 60 51 34 27 19 5 352